Cloud_Cover
100 100 97 48 7 100 100 100 100 100 100 100 76 100 100 100 99 62 99 100 100 100 100 100 100 81 74 4 91 100 10 20 6 100 39 5 6 0 41 25 64 40 8
97 100 100 100 62 7 93 100 100 100 100 100 100 100 100 100 99 100 100 100 100 100 100 86 96 50 0 1 54 100 10 1 80 98 8 10 2 51 96 43 65 73 82
22 83 87 100 98 100 100 79 100 100 100 100 100 100 100 100 100 100 100 100 100 100 6 100 26 14 0 0 0 99 15 0 9 44 13 7 26 5 36 86 82 40 45
0 0 2 2 66 68 97 100 100 100 99 100 100 100 100 100 100 100 100 100 81 3 6 12 29 27 10 0 0 0 0 31 66 88 57 31 7 99 57 96 55 75 98
0 0 0 0 0 0 3 100 100 100 100 100 100 100 100 84 37 100 100 100 64 0 2 15 33 25 29 0 16 0 1 15 83 51 96 46 34 68 90 69 98 66 53
5 1 0 0 0 0 0 0 19 31 75 8 100 100 100 100 26 90 100 98 0 0 1 44 57 7 31 0 37 27 37 100 88 5 9 94 69 45 82 95 99 42 88
4 5 0 3 0 1 4 0 0 6 0 0 22 81 6 100 80 53 7 0 0 0 3 26 48 77 0 0 78 95 100 100 65 4 22 9 45 100 38 96 100 68 42
11 12 42 11 4 95 91 44 1 15 0 0 0 0 6 62 8 0 0 3 0 0 4 18 3 0 20 7 24 99 100 27 2 1 6 6 36 38 100 91 95 95 34
7 36 4 40 92 100 100 100 54 39 0 0 0 0 0 4 73 0 4 2 23 90 50 57 2 76 86 39 93 99 64 79 92 100 96 83 65 79 100 94 100 80 98
100 93 100 100 100 100 98 100 30 30 0 0 0 0 88 51 98 6 0 0 36 64 24 42 77 13 100 100 67 30 98 100 73 59 12 40 56 85 99 100 100 93 100
100 92 100 100 100 100 66 86 1 15 0 0 3 49 100 98 20 13 3 4 50 50 21 15 8 100 100 100 77 30 60 25 91 94 85 100 95 89 72 91 93 97 98
100 100 100 79 72 63 58 44 16 98 10 67 100 100 100 53 43 70 78 10 6 31 72 100 95 100 100 100 66 99 99 81 88 100 100 100 91 100 100 100 100 100 100
100 100 100 76 65 58 74 66 100 100 100 100 100 98 100 99 28 100 11 53 99 100 100 98 97 100 100 82 100 100 100 100 100 100 100 100 100 100 99 100 100 100 100
100 100 100 100 100 100 100 100 100 100 100 100 100 100 100 100 61 98 100 100 100 100 86 13 35 49 24 56 56 92 100 100 96 78 86 93 74 100 100 100 100 100 93
100 100 100 100 100 100 100 100 86 76 99 91 52 95 100 100 100 100 100 100 100 30 0 8 81 100 99 100 100 79 100 87 96 62 98 83 74 100 100 100 100 97 66
100 100 100 100 100 100 100 100 100 100 100 97 72 91 100 100 100 100 100 96 18 3 1 33 100 100 100 100 93 88 67 96 99 100 100 100 85 100 100 76 65 58 98
100 100 100 100 100 100 100 100 100 100 100 100 100 100 100 100 100 100 100 100 100 80 42 81 100 100 100 79 53 67 70 98 100 100 100 100 99 100 100 54 16 20 57
100 100 100 100 100 100 100 100 100 100 100 100 100 100 100 100 100 100 100 44 19 30 100 77 100 99 93 41 98 67 88 33 84 93 100 89 96 75 50 91 89 68 85
100 100 100 100 100 100 100 100 100 100 100 100 100 100 100 100 100 100 77 14 53 89 100 99 100 100 66 95 100 95 100 79 87 97 61 69 95 100 100 88 68 81 43
100 100 100 100 93 98 87 100 100 100 100 100 100 100 100 100 98 61 61 100 100 96 83 100 97 84 37 97 28 29 52 86 100 100 93 100 100 62 100 100 68 85 64
100 100 100 100 100 90 100 100 100 88 79 61 100 100 75 96 100 100 100 100 100 100 99 69 97 98 100 78 97 44 83 42 90 66 74 100 100 92 100 100 100 100 51
100 100 100 100 100 100 100 96 73 76 79 58 86 57 89 100 100 100 100 100 96 67 55 81 100 67 85 58 98 73 49 87 93 99 99 100 98 100 96 100 100 100 100
100 100 100 100 100 100 45 32 39 86 43 94 100 90 100 88 98 100 100 100 100 100 91 86 97 91 98 82 86 59 95 98 52 41 66 95 100 100 74 94 100 100 100
100 100 100 94 98 80 97 50 100 85 46 87 69 81 96 98 88 100 100 100 100 100 100 100 100 100 100 88 92 58 27 61 79 77 78 100 100 97 99 99 100 100 100
100 100 100 95 90 99 73 100 100 89 98 80 100 98 95 81 100 100 100 100 100 100 100 100 100 100 100 100 100 100 100 100 95 100 100 78 100 89 76 100 100 100 100
100 100 97 66 100 100 100 96 100 100 100 100 100 83 94 100 100 100 100 100 100 100 100 100 100 100 100 78 98 100 100 84 41 69 85 100 99 100 100 100 100 100 100